| time (UTC) | temp F | wind direction | speed MPH | gust MPH | rain 1hr in | rain 24hr in | rain mn in | humidity % | barometer mb |
| 20260507115038 | 33 | 0 | 0.0 | 3.0 | 0.00 | 0.43 | 0.00 | 88 | 1014.8 |
| 20260507114600 | 33 | 0 | 1.0 | 3.0 | 0.00 | 0.43 | 0.00 | 88 | 1014.8 |
| 20260507114038 | 33 | 0 | 0.0 | 3.0 | 0.00 | 0.43 | 0.00 | 88 | 1014.9 |
| 20260507113538 | 33 | 83 | 0.0 | 3.0 | 0.00 | 0.43 | 0.00 | 88 | 1014.9 |
| 20260507113051 | 33 | 83 | 1.0 | 3.0 | 0.00 | 0.43 | 0.00 | 88 | 1014.8 |
| 20260507112538 | 32 | 0 | 0.0 | 2.0 | 0.00 | 0.43 | 0.00 | 87 | 1014.9 |
| 20260507112041 | 32 | 0 | 0.0 | 2.0 | 0.00 | 0.43 | 0.00 | 87 | 1014.9 |
| 20260507111549 | 33 | 54 | 1.0 | 2.0 | 0.00 | 0.43 | 0.00 | 87 | 1014.8 |
| 20260507111037 | 33 | 54 | 0.0 | 2.0 | 0.00 | 0.43 | 0.00 | 87 | 1014.9 |
| 20260507110541 | 33 | 54 | 0.0 | 2.0 | 0.00 | 0.43 | 0.00 | 88 | 1014.8 |
| 20260507110046 | 33 | 0 | 0.0 | 2.0 | 0.00 | 0.43 | 0.00 | 88 | 1014.9 |
| 20260507105537 | 33 | 0 | 0.0 | 0.0 | 0.00 | 0.43 | 0.00 | 88 | 1014.8 |
| 20260507105037 | 33 | 0 | 0.0 | 3.0 | 0.00 | 0.43 | 0.00 | 88 | 1014.7 |
| 20260507104548 | 33 | 0 | 0.0 | 3.0 | 0.00 | 0.43 | 0.00 | 89 | 1014.6 |
| 20260507104037 | 33 | 54 | 1.0 | 3.0 | 0.00 | 0.43 | 0.00 | 88 | 1014.7 |
| 20260507103539 | 33 | 62 | 1.0 | 3.0 | 0.00 | 0.43 | 0.00 | 88 | 1014.6 |
| 20260507103049 | 32 | 62 | 0.0 | 5.0 | 0.00 | 0.43 | 0.00 | 88 | 1014.5 |
| 20260507102538 | 32 | 39 | 0.0 | 5.0 | 0.00 | 0.43 | 0.00 | 88 | 1014.6 |
| 20260507102039 | 32 | 37 | 2.0 | 5.0 | 0.00 | 0.43 | 0.00 | 88 | 1014.7 |
| 20260507101548 | 32 | 302 | 0.0 | 2.0 | 0.00 | 0.43 | 0.00 | 88 | 1014.8 |
| 20260507101041 | 32 | 0 | 0.0 | 2.0 | 0.00 | 0.43 | 0.00 | 88 | 1014.9 |
| 20260507100537 | 32 | 301 | 0.0 | 0.0 | 0.00 | 0.43 | 0.00 | 88 | 1015.0 |
| 20260507100050 | 32 | 0 | 0.0 | 2.0 | 0.00 | 0.43 | 0.00 | 88 | 1014.9 |
| 20260507095538 | 32 | 0 | 0.0 | 2.0 | 0.00 | 0.43 | 0.00 | 88 | 1015.1 |
| 20260507095035 | 32 | 0 | 0.0 | 2.0 | 0.00 | 0.43 | 0.00 | 87 | 1014.9 |
| 20260507094557 | 32 | 19 | 0.0 | 3.0 | 0.00 | 0.43 | 0.00 | 87 | 1014.9 |
| 20260507094037 | 32 | 0 | 0.0 | 3.0 | 0.00 | 0.43 | 0.00 | 87 | 1014.9 |
| 20260507093537 | 32 | 135 | 0.0 | 3.0 | 0.00 | 0.43 | 0.00 | 87 | 1014.9 |
| 20260507093052 | 32 | 132 | 0.0 | 0.0 | 0.00 | 0.43 | 0.00 | 87 | 1015.1 |
| 20260507092537 | 32 | 0 | 0.0 | 0.0 | 0.00 | 0.43 | 0.00 | 87 | 1015.2 |
| 20260507092038 | 32 | 0 | 0.0 | 2.0 | 0.00 | 0.43 | 0.00 | 86 | 1015.1 |
| 20260507091546 | 32 | 0 | 0.0 | 2.0 | 0.00 | 0.43 | 0.00 | 86 | 1015.1 |
| 20260507091038 | 32 | 0 | 0.0 | 2.0 | 0.00 | 0.43 | 0.00 | 86 | 1015.0 |
| 20260507090538 | 32 | 0 | 0.0 | 2.0 | 0.00 | 0.43 | 0.00 | 86 | 1015.1 |
| 20260507090045 | 32 | 0 | 0.0 | 2.0 | 0.00 | 0.43 | 0.00 | 86 | 1015.1 |
| 20260507085538 | 33 | 203 | 0.0 | 3.0 | 0.00 | 0.44 | 0.00 | 86 | 1015.2 |
| 20260507085038 | 33 | 0 | 0.0 | 3.0 | 0.00 | 0.44 | 0.00 | 86 | 1015.2 |
| 20260507084548 | 33 | 101 | 1.0 | 3.0 | 0.00 | 0.44 | 0.00 | 86 | 1015.3 |
| 20260507084037 | 33 | 101 | 0.0 | 2.0 | 0.00 | 0.44 | 0.00 | 86 | 1015.3 |
| 20260507083538 | 33 | 0 | 0.0 | 0.0 | 0.00 | 0.44 | 0.00 | 86 | 1015.2 |
| 20260507083052 | 33 | 0 | 0.0 | 0.0 | 0.00 | 0.44 | 0.00 | 85 | 1015.2 |
| 20260507082537 | 33 | 0 | 0.0 | 0.0 | 0.00 | 0.44 | 0.00 | 85 | 1015.3 |
| 20260507082039 | 33 | 0 | 0.0 | 2.0 | 0.00 | 0.44 | 0.00 | 85 | 1015.4 |
| 20260507081543 | 33 | 0 | 0.0 | 2.0 | 0.00 | 0.44 | 0.00 | 85 | 1015.4 |
| 20260507081038 | 33 | 101 | 0.0 | 1.0 | 0.00 | 0.44 | 0.00 | 85 | 1015.4 |
| 20260507080538 | 33 | 0 | 0.0 | 1.0 | 0.00 | 0.44 | 0.00 | 85 | 1015.6 |
| 20260507080053 | 33 | 0 | 0.0 | 2.0 | 0.00 | 0.44 | 0.00 | 85 | 1015.6 |
| 20260507075538 | 34 | 0 | 0.0 | 3.0 | 0.00 | 0.44 | 0.00 | 85 | 1015.6 |
| 20260507075038 | 34 | 0 | 0.0 | 3.0 | 0.00 | 0.44 | 0.00 | 85 | 1015.7 |
| 20260507074550 | 34 | 0 | 1.0 | 3.0 | 0.00 | 0.44 | 0.00 | 85 | 1015.8 |
| 20260507074037 | 34 | 0 | 0.0 | 3.0 | 0.00 | 0.44 | 0.00 | 85 | 1015.8 |
| 20260507073538 | 34 | 101 | 0.0 | 3.0 | 0.00 | 0.44 | 0.00 | 85 | 1015.8 |
| 20260507073049 | 34 | 0 | 0.0 | 4.0 | 0.00 | 0.44 | 0.00 | 85 | 1015.9 |
| 20260507072538 | 34 | 102 | 1.0 | 4.0 | 0.00 | 0.44 | 0.00 | 85 | 1015.8 |
| 20260507072037 | 34 | 163 | 1.0 | 2.0 | 0.00 | 0.44 | 0.00 | 85 | 1016.0 |
| 20260507071546 | 34 | 163 | 0.0 | 3.0 | 0.00 | 0.44 | 0.00 | 85 | 1015.9 |
| 20260507071037 | 34 | 164 | 1.0 | 3.0 | 0.00 | 0.44 | 0.00 | 85 | 1016.0 |
| 20260507070538 | 34 | 181 | 0.0 | 2.0 | 0.00 | 0.44 | 0.00 | 85 | 1016.1 |
| 20260507070055 | 34 | 0 | 0.0 | 2.0 | 0.00 | 0.44 | 0.00 | 85 | 1016.1 |
| 20260507065541 | 34 | 0 | 0.0 | 2.0 | 0.00 | 0.45 | 0.00 | 85 | 1016.3 |
| 20260507065037 | 34 | 0 | 0.0 | 2.0 | 0.00 | 0.45 | 0.00 | 85 | 1016.2 |
| 20260507064553 | 34 | 0 | 0.0 | 0.0 | 0.00 | 0.45 | 0.00 | 84 | 1016.2 |
| 20260507064041 | 34 | 0 | 0.0 | 2.0 | 0.00 | 0.45 | 0.00 | 84 | 1016.3 |
| 20260507063540 | 34 | 0 | 0.0 | 2.0 | 0.00 | 0.45 | 0.00 | 84 | 1016.4 |
| 20260507063046 | 34 | 0 | 0.0 | 4.0 | 0.00 | 0.45 | 0.00 | 84 | 1016.4 |
| 20260507062538 | 34 | 0 | 1.0 | 4.0 | 0.00 | 0.45 | 0.00 | 84 | 1016.4 |
| 20260507062037 | 34 | 159 | 0.0 | 3.0 | 0.00 | 0.45 | 0.00 | 84 | 1016.4 |
| 20260507061548 | 35 | 0 | 0.0 | 0.0 | 0.00 | 0.45 | 0.00 | 84 | 1016.6 |
| 20260507061037 | 35 | 0 | 0.0 | 0.0 | 0.00 | 0.45 | 0.00 | 83 | 1016.6 |
| 20260507060538 | 35 | 0 | 0.0 | 0.0 | 0.00 | 0.45 | 0.00 | 83 | 1016.8 |
| 20260507060054 | 35 | 0 | 0.0 | 0.0 | 0.00 | 0.45 | 0.00 | 83 | 1016.7 |
| 20260507055538 | 35 | 0 | 0.0 | 1.0 | 0.00 | 0.47 | 0.45 | 82 | 1016.7 |
| 20260507055037 | 35 | 0 | 0.0 | 1.0 | 0.00 | 0.47 | 0.45 | 82 | 1016.7 |
| 20260507054550 | 35 | 0 | 0.0 | 1.0 | 0.00 | 0.47 | 0.45 | 82 | 1016.7 |
| 20260507054038 | 35 | 0 | 0.0 | 3.0 | 0.00 | 0.47 | 0.45 | 81 | 1016.8 |
| 20260507053535 | 35 | 0 | 0.0 | 4.0 | 0.00 | 0.47 | 0.45 | 81 | 1016.9 |
| 20260507053044 | 35 | 0 | 2.0 | 5.0 | 0.00 | 0.47 | 0.45 | 81 | 1017.0 |
| 20260507052540 | 35 | 177 | 1.0 | 5.0 | 0.00 | 0.47 | 0.45 | 81 | 1017.1 |
| 20260507052038 | 35 | 152 | 2.0 | 5.0 | 0.00 | 0.47 | 0.45 | 81 | 1016.9 |
| 20260507051553 | 35 | 169 | 1.0 | 6.0 | 0.00 | 0.47 | 0.45 | 81 | 1017.1 |
| 20260507051037 | 36 | 198 | 2.0 | 6.0 | 0.00 | 0.47 | 0.45 | 80 | 1017.2 |
| 20260507050537 | 36 | 173 | 2.0 | 6.0 | 0.00 | 0.47 | 0.45 | 80 | 1017.2 |
| 20260507050053 | 36 | 191 | 2.0 | 5.0 | 0.00 | 0.47 | 0.45 | 80 | 1017.4 |
| 20260507045537 | 36 | 196 | 2.0 | 5.0 | 0.00 | 0.49 | 0.45 | 80 | 1017.4 |
| 20260507045038 | 36 | 221 | 0.0 | 5.0 | 0.00 | 0.49 | 0.45 | 79 | 1017.5 |
| 20260507044559 | 36 | 233 | 1.0 | 6.0 | 0.00 | 0.49 | 0.45 | 79 | 1017.6 |
| 20260507044038 | 36 | 178 | 3.0 | 6.0 | 0.00 | 0.49 | 0.45 | 79 | 1017.6 |
| 20260507043538 | 36 | 192 | 3.0 | 6.0 | 0.00 | 0.49 | 0.45 | 79 | 1017.8 |
| 20260507043048 | 36 | 183 | 2.0 | 6.0 | 0.00 | 0.49 | 0.45 | 78 | 1017.8 |
| 20260507042538 | 36 | 181 | 2.0 | 6.0 | 0.00 | 0.49 | 0.45 | 78 | 1017.8 |
| 20260507042037 | 36 | 185 | 3.0 | 6.0 | 0.00 | 0.49 | 0.45 | 78 | 1017.9 |
| 20260507041553 | 36 | 0 | 1.0 | 5.0 | 0.00 | 0.49 | 0.45 | 78 | 1018.1 |
| 20260507041038 | 36 | 152 | 1.0 | 5.0 | 0.00 | 0.49 | 0.45 | 78 | 1018.1 |
| 20260507040538 | 36 | 152 | 1.0 | 4.0 | 0.00 | 0.49 | 0.45 | 78 | 1018.1 |
| 20260507040101 | 36 | 167 | 1.0 | 6.0 | 0.00 | 0.49 | 0.45 | 77 | 1018.1 |
| 20260507035537 | 36 | 158 | 3.0 | 6.0 | 0.00 | 0.50 | 0.45 | 77 | 1018.0 |
| 20260507035037 | 37 | 192 | 3.0 | 6.0 | 0.00 | 0.50 | 0.45 | 77 | 1018.0 |
| 20260507034601 | 37 | 219 | 3.0 | 6.0 | 0.00 | 0.50 | 0.45 | 77 | 1018.0 |
| 20260507034037 | 37 | 206 | 3.0 | 6.0 | 0.00 | 0.50 | 0.45 | 76 | 1018.1 |
| 20260507033538 | 37 | 178 | 2.0 | 6.0 | 0.00 | 0.50 | 0.45 | 76 | 1018.1 |
| 20260507033102 | 37 | 167 | 2.0 | 5.0 | 0.00 | 0.50 | 0.45 | 76 | 1018.1 |
| 20260507032537 | 37 | 161 | 2.0 | 5.0 | 0.00 | 0.50 | 0.45 | 75 | 1018.1 |
| 20260507032041 | 37 | 192 | 3.0 | 6.0 | 0.00 | 0.50 | 0.45 | 75 | 1018.1 |
| 20260507031559 | 37 | 188 | 2.0 | 6.0 | 0.00 | 0.50 | 0.45 | 75 | 1018.1 |
| 20260507031039 | 37 | 183 | 2.0 | 5.0 | 0.00 | 0.50 | 0.45 | 74 | 1018.1 |
| 20260507030535 | 37 | 201 | 2.0 | 5.0 | 0.00 | 0.50 | 0.45 | 74 | 1018.2 |
| 20260507030104 | 38 | 194 | 2.0 | 5.0 | 0.00 | 0.50 | 0.45 | 73 | 1018.1 |
| 20260507025537 | 38 | 176 | 2.0 | 5.0 | 0.00 | 0.51 | 0.45 | 72 | 1018.0 |
| 20260507025038 | 38 | 189 | 2.0 | 5.0 | 0.00 | 0.51 | 0.45 | 72 | 1018.1 |
| 20260507024606 | 38 | 210 | 2.0 | 5.0 | 0.00 | 0.51 | 0.45 | 71 | 1018.2 |
| 20260507024037 | 38 | 196 | 2.0 | 5.0 | 0.00 | 0.51 | 0.45 | 71 | 1018.1 |
| 20260507023537 | 39 | 185 | 1.0 | 6.0 | 0.00 | 0.51 | 0.45 | 70 | 1018.1 |
| 20260507023043 | 39 | 167 | 2.0 | 6.0 | 0.00 | 0.51 | 0.45 | 69 | 1018.0 |
| 20260507022538 | 39 | 209 | 2.0 | 6.0 | 0.00 | 0.51 | 0.45 | 69 | 1018.0 |
| 20260507022038 | 39 | 201 | 3.0 | 6.0 | 0.00 | 0.51 | 0.45 | 68 | 1018.0 |
| 20260507021557 | 39 | 193 | 3.0 | 6.0 | 0.00 | 0.51 | 0.45 | 67 | 1018.0 |
| 20260507021037 | 40 | 178 | 2.0 | 6.0 | 0.00 | 0.51 | 0.45 | 66 | 1017.9 |
| 20260507020540 | 40 | 210 | 2.0 | 6.0 | 0.00 | 0.51 | 0.45 | 65 | 1017.9 |
| 20260507020100 | 40 | 174 | 2.0 | 6.0 | 0.00 | 0.51 | 0.45 | 65 | 1017.9 |
| 20260507015537 | 41 | 202 | 2.0 | 7.0 | 0.00 | 0.51 | 0.45 | 65 | 1017.9 |
| 20260507015041 | 41 | 202 | 3.0 | 7.0 | 0.00 | 0.51 | 0.45 | 64 | 1017.9 |
| 20260507014554 | 41 | 214 | 3.0 | 7.0 | 0.00 | 0.51 | 0.45 | 63 | 1018.0 |
| 20260507014037 | 41 | 220 | 3.0 | 8.0 | 0.00 | 0.51 | 0.45 | 63 | 1018.0 |
| 20260507013539 | 41 | 225 | 3.0 | 8.0 | 0.00 | 0.51 | 0.45 | 63 | 1018.0 |
| 20260507013053 | 42 | 208 | 4.0 | 8.0 | 0.00 | 0.51 | 0.45 | 62 | 1018.0 |
| 20260507012535 | 42 | 188 | 3.0 | 9.0 | 0.00 | 0.51 | 0.45 | 63 | 1017.9 |
| 20260507012035 | 42 | 206 | 3.0 | 10.0 | 0.00 | 0.51 | 0.45 | 62 | 1017.9 |
| 20260507011552 | 42 | 212 | 4.0 | 10.0 | 0.00 | 0.51 | 0.45 | 63 | 1017.9 |
| 20260507011034 | 42 | 198 | 3.0 | 9.0 | 0.00 | 0.51 | 0.45 | 64 | 1017.9 |
| 20260507010535 | 42 | 202 | 4.0 | 7.0 | 0.00 | 0.51 | 0.45 | 62 | 1017.9 |
| 20260507010047 | 42 | 177 | 3.0 | 8.0 | 0.00 | 0.51 | 0.45 | 62 | 1017.8 |
| 20260507005537 | 43 | 169 | 4.0 | 8.0 | 0.00 | 0.51 | 0.45 | 61 | 1017.9 |
| 20260507005037 | 43 | 174 | 3.0 | 10.0 | 0.00 | 0.51 | 0.45 | 61 | 1017.9 |
| 20260507004554 | 43 | 194 | 6.0 | 10.0 | 0.00 | 0.51 | 0.45 | 61 | 1017.8 |
| 20260507004037 | 43 | 186 | 5.0 | 11.0 | 0.00 | 0.51 | 0.45 | 60 | 1017.9 |
| 20260507003537 | 44 | 186 | 5.0 | 12.0 | 0.00 | 0.51 | 0.45 | 60 | 1017.9 |
| 20260507003056 | 44 | 216 | 5.0 | 12.0 | 0.00 | 0.51 | 0.45 | 60 | 1017.9 |
| 20260507002537 | 44 | 221 | 5.0 | 10.0 | 0.00 | 0.51 | 0.45 | 60 | 1017.9 |
| 20260507002037 | 44 | 201 | 3.0 | 12.0 | 0.00 | 0.51 | 0.45 | 59 | 1018.0 |
| 20260507001547 | 44 | 257 | 6.0 | 12.0 | 0.00 | 0.51 | 0.45 | 59 | 1018.0 |
| 20260507001037 | 44 | 173 | 5.0 | 11.0 | 0.00 | 0.51 | 0.45 | 60 | 1018.0 |
| 20260507000534 | 44 | 162 | 6.0 | 11.0 | 0.00 | 0.51 | 0.45 | 59 | 1018.1 |
| 20260507000049 | 44 | 201 | 5.0 | 11.0 | 0.00 | 0.51 | 0.45 | 59 | 1018.1 |
| 20260506235537 | 44 | 208 | 2.0 | 10.0 | 0.00 | 0.51 | 0.45 | 59 | 1018.2 |
| 20260506235033 | 45 | 195 | 4.0 | 10.0 | 0.00 | 0.51 | 0.45 | 58 | 1018.2 |
| 20260506234554 | 45 | 166 | 4.0 | 13.0 | 0.00 | 0.51 | 0.45 | 57 | 1018.3 |
| 20260506234037 | 45 | 187 | 7.0 | 13.0 | 0.00 | 0.51 | 0.45 | 57 | 1018.3 |
| 20260506233538 | 45 | 220 | 7.0 | 13.0 | 0.00 | 0.51 | 0.45 | 56 | 1018.3 |
| 20260506233050 | 45 | 198 | 5.0 | 11.0 | 0.00 | 0.51 | 0.45 | 56 | 1018.2 |
| 20260506232537 | 46 | 202 | 5.0 | 11.0 | 0.00 | 0.51 | 0.45 | 58 | 1018.3 |
| 20260506232037 | 46 | 203 | 7.0 | 11.0 | 0.00 | 0.51 | 0.45 | 58 | 1018.3 |
| 20260506231554 | 46 | 183 | 4.0 | 12.0 | 0.00 | 0.51 | 0.45 | 59 | 1018.3 |
| 20260506231037 | 46 | 161 | 6.0 | 13.0 | 0.00 | 0.51 | 0.45 | 56 | 1018.2 |
| 20260506230537 | 46 | 223 | 5.0 | 13.0 | 0.00 | 0.51 | 0.45 | 57 | 1018.3 |
| 20260506225538 | 46 | 266 | 6.0 | 11.0 | 0.00 | 0.54 | 0.45 | 56 | 1018.2 |
| 20260506225038 | 46 | 206 | 4.0 | 12.0 | 0.00 | 0.54 | 0.45 | 59 | 1018.2 |
| 20260506224549 | 46 | 202 | 5.0 | 13.0 | 0.00 | 0.54 | 0.45 | 55 | 1018.1 |
| 20260506224036 | 47 | 214 | 7.0 | 13.0 | 0.00 | 0.54 | 0.45 | 55 | 1018.1 |
| 20260506223537 | 47 | 173 | 7.0 | 13.0 | 0.00 | 0.54 | 0.45 | 58 | 1018.3 |
| 20260506223045 | 46 | 206 | 5.0 | 13.0 | 0.00 | 0.54 | 0.45 | 59 | 1018.2 |
| 20260506222535 | 46 | 202 | 6.0 | 13.0 | 0.00 | 0.54 | 0.45 | 59 | 1018.3 |
| 20260506222041 | 45 | 147 | 5.0 | 13.0 | 0.00 | 0.54 | 0.45 | 59 | 1018.4 |
| 20260506221548 | 45 | 194 | 4.0 | 10.0 | 0.00 | 0.54 | 0.45 | 60 | 1018.4 |
| 20260506221037 | 45 | 148 | 5.0 | 10.0 | 0.00 | 0.54 | 0.45 | 58 | 1018.4 |
| 20260506220537 | 46 | 142 | 3.0 | 8.0 | 0.00 | 0.54 | 0.45 | 59 | 1018.5 |
| 20260506220051 | 45 | 183 | 1.0 | 9.0 | 0.00 | 0.54 | 0.45 | 61 | 1018.7 |
| 20260506215534 | 46 | 216 | 3.0 | 11.0 | 0.00 | 0.61 | 0.45 | 57 | 1018.7 |
| 20260506215038 | 45 | 211 | 5.0 | 12.0 | 0.00 | 0.61 | 0.45 | 58 | 1018.9 |
| 20260506214549 | 45 | 268 | 7.0 | 14.0 | 0.00 | 0.61 | 0.45 | 61 | 1019.1 |
| 20260506214040 | 44 | 263 | 6.0 | 14.0 | 0.00 | 0.61 | 0.45 | 58 | 1019.2 |
| 20260506213538 | 44 | 244 | 7.0 | 14.0 | 0.00 | 0.61 | 0.45 | 60 | 1019.3 |
| 20260506213050 | 44 | 219 | 7.0 | 13.0 | 0.00 | 0.61 | 0.45 | 59 | 1019.3 |
| 20260506212539 | 44 | 234 | 6.0 | 13.0 | 0.00 | 0.61 | 0.45 | 58 | 1019.4 |
| 20260506212038 | 44 | 261 | 7.0 | 12.0 | 0.00 | 0.61 | 0.45 | 59 | 1019.4 |
| 20260506211552 | 44 | 214 | 7.0 | 12.0 | 0.00 | 0.61 | 0.45 | 60 | 1019.4 |
| 20260506211038 | 44 | 241 | 6.0 | 12.0 | 0.00 | 0.61 | 0.45 | 62 | 1019.4 |
| 20260506210538 | 44 | 179 | 5.0 | 12.0 | 0.00 | 0.61 | 0.45 | 61 | 1019.6 |
| 20260506210054 | 44 | 189 | 5.0 | 13.0 | 0.00 | 0.61 | 0.45 | 63 | 1019.5 |
| 20260506205537 | 44 | 218 | 5.0 | 13.0 | 0.00 | 0.65 | 0.45 | 62 | 1019.6 |
| 20260506205037 | 44 | 156 | 4.0 | 9.0 | 0.00 | 0.65 | 0.45 | 64 | 1019.7 |
| 20260506204549 | 42 | 198 | 2.0 | 7.0 | 0.00 | 0.65 | 0.45 | 67 | 1019.8 |
| 20260506204037 | 42 | 241 | 0.0 | 4.0 | 0.00 | 0.65 | 0.45 | 65 | 1019.9 |
| 20260506203534 | 41 | 0 | 0.0 | 7.0 | 0.00 | 0.65 | 0.45 | 58 | 1020.0 |
| 20260506203052 | 42 | 0 | 1.0 | 7.0 | 0.00 | 0.65 | 0.45 | 60 | 1020.1 |
| 20260506202537 | 43 | 185 | 3.0 | 7.0 | 0.00 | 0.65 | 0.45 | 61 | 1020.1 |
| 20260506202037 | 42 | 0 | 2.0 | 7.0 | 0.00 | 0.65 | 0.45 | 61 | 1020.1 |
| 20260506201552 | 42 | 185 | 4.0 | 7.0 | 0.00 | 0.65 | 0.45 | 64 | 1020.3 |
| 20260506201036 | 42 | 189 | 4.0 | 7.0 | 0.00 | 0.65 | 0.45 | 62 | 1020.3 |
| 20260506200536 | 41 | 230 | 3.0 | 7.0 | 0.00 | 0.65 | 0.45 | 63 | 1020.3 |
| 20260506200048 | 42 | 227 | 3.0 | 7.0 | 0.00 | 0.65 | 0.45 | 62 | 1020.2 |
| 20260506195537 | 42 | 173 | 4.0 | 7.0 | 0.00 | 0.68 | 0.45 | 60 | 1020.3 |
| 20260506195036 | 43 | 212 | 2.0 | 6.0 | 0.00 | 0.68 | 0.45 | 62 | 1020.3 |
| 20260506194555 | 43 | 204 | 2.0 | 6.0 | 0.00 | 0.68 | 0.45 | 63 | 1020.2 |
| 20260506194037 | 42 | 0 | 0.0 | 6.0 | 0.00 | 0.68 | 0.45 | 65 | 1020.3 |
| 20260506193535 | 40 | 53 | 2.0 | 6.0 | 0.00 | 0.68 | 0.45 | 63 | 1020.4 |
| 20260506193048 | 40 | 118 | 1.0 | 5.0 | 0.00 | 0.68 | 0.45 | 63 | 1020.3 |
| 20260506192537 | 40 | 219 | 2.0 | 5.0 | 0.00 | 0.68 | 0.45 | 57 | 1020.4 |
| 20260506192037 | 40 | 0 | 0.0 | 3.0 | 0.00 | 0.68 | 0.45 | 58 | 1020.4 |
| 20260506191550 | 40 | 314 | 0.0 | 4.0 | 0.00 | 0.68 | 0.45 | 61 | 1020.6 |
| 20260506191037 | 40 | 0 | 0.0 | 6.0 | 0.00 | 0.68 | 0.45 | 58 | 1020.5 |
| 20260506190537 | 39 | 326 | 1.0 | 6.0 | 0.01 | 0.68 | 0.45 | 62 | 1020.7 |
| 20260506190049 | 40 | 24 | 1.0 | 6.0 | 0.01 | 0.68 | 0.45 | 61 | 1020.7 |
| 20260506185537 | 39 | 0 | 1.0 | 4.0 | 0.02 | 0.73 | 0.45 | 63 | 1020.8 |
| 20260506185037 | 40 | 0 | 0.0 | 4.0 | 0.03 | 0.73 | 0.45 | 65 | 1020.8 |
| 20260506184554 | 40 | 0 | 2.0 | 5.0 | 0.03 | 0.73 | 0.45 | 67 | 1020.8 |
| 20260506184036 | 39 | 352 | 1.0 | 5.0 | 0.03 | 0.73 | 0.45 | 63 | 1020.8 |
| 20260506183538 | 39 | 69 | 0.0 | 3.0 | 0.04 | 0.73 | 0.45 | 66 | 1020.9 |
| 20260506183052 | 40 | 243 | 0.0 | 4.0 | 0.05 | 0.73 | 0.45 | 63 | 1020.9 |
| 20260506182534 | 39 | 38 | 1.0 | 5.0 | 0.06 | 0.73 | 0.45 | 67 | 1021.0 |
| 20260506182037 | 38 | 91 | 2.0 | 5.0 | 0.07 | 0.73 | 0.45 | 60 | 1021.1 |
| 20260506181545 | 38 | 0 | 0.0 | 4.0 | 0.08 | 0.73 | 0.45 | 67 | 1021.1 |
| 20260506181037 | 38 | 347 | 0.0 | 4.0 | 0.10 | 0.73 | 0.45 | 68 | 1021.1 |
| 20260506180537 | 39 | 0 | 1.0 | 4.0 | 0.10 | 0.72 | 0.44 | 74 | 1021.2 |
| 20260506180049 | 37 | 356 | 1.0 | 4.0 | 0.10 | 0.71 | 0.43 | 72 | 1021.1 |
| 20260506175539 | 37 | 17 | 2.0 | 4.0 | 0.11 | 0.74 | 0.43 | 69 | 1021.3 |
| 20260506175036 | 36 | 360 | 0.0 | 4.0 | 0.12 | 0.73 | 0.42 | 73 | 1021.3 |
| 20260506174548 | 36 | 56 | 0.0 | 4.0 | 0.13 | 0.73 | 0.42 | 72 | 1021.1 |
| 20260506174038 | 37 | 337 | 1.0 | 4.0 | 0.12 | 0.72 | 0.41 | 75 | 1021.1 |
| 20260506173538 | 37 | 51 | 2.0 | 4.0 | 0.14 | 0.72 | 0.41 | 76 | 1021.1 |
| 20260506173127 | 36 | 73 | 2.0 | 4.0 | 0.14 | 0.71 | 0.40 | 72 | 1021.1 |
| 20260506172536 | 37 | 50 | 1.0 | 6.0 | 0.14 | 0.70 | 0.39 | 74 | 1021.1 |
| 20260506172037 | 37 | 312 | 0.0 | 7.0 | 0.15 | 0.69 | 0.38 | 79 | 1021.1 |
| 20260506171548 | 37 | 335 | 2.0 | 7.0 | 0.16 | 0.68 | 0.37 | 76 | 1021.1 |
| 20260506171040 | 37 | 41 | 2.0 | 6.0 | 0.15 | 0.66 | 0.35 | 75 | 1021.1 |
| 20260506170540 | 36 | 46 | 2.0 | 7.0 | 0.15 | 0.65 | 0.34 | 78 | 1021.3 |
| 20260506170053 | 36 | 33 | 2.0 | 7.0 | 0.15 | 0.64 | 0.33 | 77 | 1021.2 |
| 20260506165537 | 37 | 23 | 1.0 | 6.0 | 0.14 | 0.72 | 0.31 | 79 | 1021.3 |
| 20260506165037 | 36 | 0 | 1.0 | 6.0 | 0.14 | 0.71 | 0.30 | 82 | 1021.2 |
| 20260506164555 | 36 | 335 | 1.0 | 5.0 | 0.14 | 0.70 | 0.29 | 81 | 1021.1 |
| 20260506164037 | 36 | 342 | 0.0 | 5.0 | 0.14 | 0.69 | 0.28 | 82 | 1020.9 |
| 20260506163537 | 36 | 347 | 1.0 | 5.0 | 0.14 | 0.68 | 0.27 | 85 | 1020.9 |
| 20260506163058 | 36 | 273 | 1.0 | 5.0 | 0.15 | 0.67 | 0.26 | 84 | 1020.8 |
| 20260506162536 | 36 | 331 | 2.0 | 5.0 | 0.14 | 0.65 | 0.24 | 85 | 1020.7 |
| 20260506162037 | 36 | 0 | 1.0 | 6.0 | 0.14 | 0.64 | 0.23 | 86 | 1020.7 |
| 20260506161612 | 35 | 293 | 1.0 | 6.0 | 0.13 | 0.62 | 0.21 | 88 | 1020.8 |
| 20260506161037 | 35 | 310 | 1.0 | 6.0 | 0.12 | 0.61 | 0.20 | 89 | 1020.8 |
| 20260506160536 | 34 | 316 | 3.0 | 6.0 | 0.12 | 0.60 | 0.19 | 89 | 1020.7 |
| 20260506160103 | 34 | 270 | 1.0 | 6.0 | 0.11 | 0.58 | 0.18 | 90 | 1020.7 |
| 20260506155534 | 34 | 0 | 2.0 | 7.0 | 0.11 | 0.68 | 0.17 | 90 | 1020.6 |
| 20260506155034 | 34 | 283 | 2.0 | 7.0 | 0.10 | 0.67 | 0.16 | 91 | 1020.6 |
| 20260506154555 | 34 | 251 | 3.0 | 7.0 | 0.10 | 0.66 | 0.15 | 91 | 1020.6 |
| 20260506154038 | 34 | 0 | 3.0 | 7.0 | 0.09 | 0.65 | 0.14 | 92 | 1020.6 |
| 20260506153537 | 33 | 305 | 3.0 | 7.0 | 0.07 | 0.63 | 0.12 | 92 | 1020.6 |
| 20260506153056 | 34 | 277 | 2.0 | 7.0 | 0.07 | 0.62 | 0.11 | 93 | 1020.4 |
| 20260506152537 | 33 | 289 | 2.0 | 7.0 | 0.06 | 0.61 | 0.10 | 93 | 1020.5 |
| 20260506152037 | 33 | 299 | 2.0 | 7.0 | 0.05 | 0.60 | 0.09 | 93 | 1020.4 |
| 20260506151555 | 33 | 277 | 2.0 | 6.0 | 0.05 | 0.58 | 0.08 | 93 | 1020.4 |
| 20260506151036 | 33 | 248 | 2.0 | 8.0 | 0.05 | 0.58 | 0.08 | 93 | 1020.4 |
| 20260506150535 | 33 | 281 | 2.0 | 8.0 | 0.04 | 0.58 | 0.07 | 93 | 1020.4 |
| 20260506150053 | 32 | 278 | 3.0 | 9.0 | 0.04 | 0.58 | 0.07 | 93 | 1020.3 |
| 20260506145536 | 32 | 283 | 3.0 | 9.0 | 0.03 | 0.60 | 0.06 | 93 | 1020.4 |
| 20260506145038 | 32 | 307 | 3.0 | 9.0 | 0.03 | 0.60 | 0.06 | 94 | 1020.4 |
| 20260506144552 | 32 | 297 | 3.0 | 8.0 | 0.02 | 0.58 | 0.05 | 94 | 1020.3 |
| 20260506144036 | 32 | 277 | 2.0 | 8.0 | 0.03 | 0.58 | 0.05 | 94 | 1020.3 |
| 20260506143538 | 32 | 290 | 2.0 | 8.0 | 0.03 | 0.58 | 0.05 | 93 | 1020.2 |
| 20260506143047 | 32 | 308 | 3.0 | 10.0 | 0.02 | 0.58 | 0.04 | 94 | 1020.3 |
| 20260506142534 | 32 | 308 | 3.0 | 10.0 | 0.02 | 0.58 | 0.04 | 94 | 1020.2 |
| 20260506142037 | 32 | 293 | 2.0 | 8.0 | 0.02 | 0.58 | 0.04 | 93 | 1020.1 |
| 20260506141546 | 32 | 347 | 2.0 | 8.0 | 0.01 | 0.57 | 0.03 | 94 | 1020.1 |
| 20260506141037 | 32 | 286 | 2.0 | 7.0 | 0.01 | 0.57 | 0.03 | 94 | 1020.1 |
| 20260506140540 | 31 | 284 | 2.0 | 9.0 | 0.01 | 0.57 | 0.03 | 94 | 1020.1 |
| 20260506140051 | 31 | 0 | 2.0 | 9.0 | 0.01 | 0.57 | 0.03 | 94 | 1020.1 |
| 20260506135536 | 31 | 304 | 3.0 | 8.0 | 0.01 | 0.57 | 0.03 | 94 | 1020.1 |
| 20260506135037 | 31 | 311 | 3.0 | 8.0 | 0.01 | 0.57 | 0.03 | 93 | 1020.0 |
| 20260506134556 | 31 | 352 | 2.0 | 6.0 | 0.01 | 0.57 | 0.03 | 94 | 1020.0 |
| 20260506134038 | 31 | 12 | 2.0 | 4.0 | 0.00 | 0.56 | 0.02 | 94 | 1019.9 |
| 20260506133537 | 31 | 314 | 2.0 | 4.0 | 0.00 | 0.56 | 0.02 | 94 | 1019.8 |
| 20260506133051 | 31 | 329 | 1.0 | 4.0 | 0.00 | 0.56 | 0.02 | 94 | 1019.8 |
| 20260506132536 | 31 | 0 | 1.0 | 6.0 | 0.00 | 0.56 | 0.02 | 94 | 1019.7 |
| 20260506132037 | 31 | 21 | 1.0 | 8.0 | 0.00 | 0.56 | 0.02 | 94 | 1019.6 |
| 20260506131552 | 31 | 44 | 3.0 | 8.0 | 0.00 | 0.56 | 0.02 | 94 | 1019.5 |
| 20260506131033 | 31 | 358 | 2.0 | 8.0 | 0.00 | 0.56 | 0.02 | 94 | 1019.4 |
| 20260506130538 | 31 | 356 | 1.0 | 4.0 | 0.00 | 0.56 | 0.02 | 94 | 1019.4 |
| 20260506130100 | 31 | 35 | 2.0 | 4.0 | 0.00 | 0.56 | 0.02 | 94 | 1019.3 |
| 20260506125536 | 31 | 15 | 1.0 | 6.0 | 0.00 | 0.58 | 0.02 | 94 | 1019.2 |
| 20260506125038 | 31 | 14 | 2.0 | 8.0 | 0.00 | 0.58 | 0.02 | 94 | 1019.3 |
| 20260506124553 | 31 | 35 | 3.0 | 8.0 | 0.00 | 0.58 | 0.02 | 94 | 1019.2 |
| 20260506124036 | 31 | 58 | 4.0 | 7.0 | 0.00 | 0.58 | 0.02 | 94 | 1019.1 |
| 20260506123538 | 31 | 24 | 2.0 | 7.0 | 0.00 | 0.58 | 0.02 | 94 | 1018.9 |
| 20260506123051 | 31 | 13 | 2.0 | 6.0 | 0.00 | 0.58 | 0.02 | 94 | 1018.9 |
| 20260506122540 | 31 | 360 | 1.0 | 5.0 | 0.00 | 0.58 | 0.02 | 94 | 1018.8 |
| 20260506122037 | 31 | 352 | 1.0 | 5.0 | 0.00 | 0.58 | 0.02 | 94 | 1018.8 |
| 20260506121544 | 31 | 320 | 1.0 | 5.0 | 0.00 | 0.58 | 0.02 | 94 | 1018.7 |
| 20260506121036 | 31 | 0 | 1.0 | 5.0 | 0.00 | 0.58 | 0.02 | 94 | 1018.7 |
| 20260506120537 | 32 | 330 | 1.0 | 5.0 | 0.00 | 0.58 | 0.02 | 94 | 1018.8 |
| 20260506120106 | 32 | 323 | 2.0 | 5.0 | 0.00 | 0.58 | 0.02 | 94 | 1018.6 |
| 20260506115537 | 32 | 342 | 2.0 | 5.0 | 0.00 | 0.61 | 0.02 | 94 | 1018.7 |